Regional Weather Roundup
Issued by NWS

Home | Current Version | Previous Version | Text Only | Print | Product List | Glossary Off
Versions: 1 2 3 4 5 6 7 8 9 10 11 12 13 14 15 16 17 18 19 20 21 22 23 24 25 26 27 28 29 30 31 32 33 34 35 36 37 38 39 40 41 42 43 44 45 46 47 48 49 50

000
ASUS43 KDMX 221807
RWRIA

WEATHER ROUNDUP FOR IOWA
NATIONAL WEATHER SERVICE DES MOINES IA
100 PM CDT TUE JUL 22 2014

NOTE: "FAIR" INDICATES FEW OR NO CLOUDS BELOW 12,000 FEET WITH NO
SIGNIFICANT WEATHER AND/OR OBSTRUCTIONS TO VISIBILITY.

* - THESE STATIONS ARE NOT NWS STATIONS...THUS NOT UNDER NWS
QUALITY CONTROL.  THEY ALSO DO NOT REPORT WEATHER SUCH
AS PRECIPITATION OR FOG.

IAZ001>003-012>014-020>022-031>034-043>046-221900-
   NORTHWEST IOWA

CITY           SKY/WX    TMP DP  RH WIND       PRES   REMARKS
CARROLL *      SUNNY     82  72  69 NW9       30.06R HX  87
CHEROKEE *     PTSUNNY   82  68  63 N15       30.08R HX  84
DENISON *      SUNNY     82  72  69 N9        30.05R HX  87
LE MARS *      SUNNY     82  68  61 NE14G24   30.05F HX  85
ORANGE CITY *  SUNNY     81  64  57 NE7       30.08F HX  82
SHELDON *      MOSUNNY   81  68  65 N8G17     30.09F HX  83
SIOUX CITY     MOSUNNY   83  67  58 NE12      30.06F HX  85
6HR MIN TEMP:  77; 6HR MAX TEMP:  84;

SPENCER        MOSUNNY   83  66  56 N14       30.09R HX  85
6HR MIN TEMP:  72; 6HR MAX TEMP:  83;

STORM LAKE *   SUNNY     79  70  73 N13G23    30.08R HX  81
$$

IAZ055>058-069>071-079>083-090>094-221900-
   SOUTHWEST IOWA

CITY           SKY/WX    TMP DP  RH WIND       PRES   REMARKS
ATLANTIC *     SUNNY     90  79  70 NW6       30.01R HX 105
AUDUBON *      SUNNY     86  81  84 N13       30.07R HX 102
CLARINDA *     SUNNY     90  79  70 VRB5      30.00F HX 105
COUNCIL BLFS * SUNNY     90  79  70 N8        30.03R HX 105
CRESTON *      MOSUNNY   88  77  70 S5        30.01R HX 100
HARLAN  *      SUNNY     84  75  74 NW14G21   30.09R HX  92
LAMONI         PTSUNNY   88  76  67 SW7       30.00F HX  99
6HR MIN TEMP:  77; 6HR MAX TEMP:  88;

RED OAK *      SUNNY     90  79  70 SW5       30.01R HX 105
SHENANDOAH *   SUNNY     90  77  66 SW6G12    30.00S HX 102
$$

IAZ047>049-059>061-072>074-084-221900-
   CENTRAL IOWA

CITY           SKY/WX    TMP DP  RH WIND       PRES   REMARKS
AMES           CLOUDY    86  77  74 N8        29.98R HX  97
6HR MIN TEMP:  78; 6HR MAX TEMP:  86;

ANKENY *       SUNNY     88  79  74 S6G12     29.96S HX 102
CHARITON *     MOSUNNY   86  77  74 S10       29.98F HX  97
DES MOINES     CLOUDY    90  77  65 S6        29.96R HX 103
6HR MIN TEMP:  79; 6HR MAX TEMP:  91; 6HR PCP: TRACE;

GRINNELL*      CLOUDY    82  75  78 S5        29.99R HX  89
KNOXVILLE *    MOSUNNY   84  77  79 SW9       29.96S HX  94
MARSHALLTOWN   PTSUNNY   86  79  79 W9        29.98R HX  99
6HR MIN TEMP:  79; 6HR MAX TEMP:  87; 6HR PCP: TRACE;

PELLA *        CLOUDY    84  77  79 S9        29.97F HAZE    HX  94
PERRY *        CLOUDY    82  73  74 N7        30.01R HX  88
$$

IAZ004>006-015-016-023>025-035-036-221900-
   NORTH CENTRAL IOWA

CITY           SKY/WX    TMP DP  RH WIND       PRES   REMARKS
ALGONA *       SUNNY     82  68  61 N15       30.07R HX  85
CLARION *      SUNNY     84  70  61 N12G18    30.03S HX  88
ESTHERVILLE    SUNNY     79  65  62 N16       30.08R HX  81
6HR MIN TEMP:  71; 6HR MAX TEMP:  80;

FORT DODGE *   PTSUNNY   82  70  65 N9        30.03S HX  86
MASON CITY     SUNNY     85  68  56 NW12      30.04R HX  88
6HR MIN TEMP:  76; 6HR MAX TEMP:  86;

FOREST CITY *  SUNNY     82  68  61 NE13      30.04R HX  85
IOWA FALLS *     N/A     88  70  55 NW12      30.02S HX  92
$$

IAZ007>011-017>019-026>030-037>042-050>054-066-221900-
   NORTHEAST IOWA

CITY           SKY/WX    TMP DP  RH WIND       PRES   REMARKS
CEDAR RAPIDS   MOSUNNY   87  76  69 S9        29.94F HX  97
6HR MIN TEMP:  74; 6HR MAX TEMP:  89;

CHARLES CITY * SUNNY     88  72  58 MISG      30.00R HX  94
DECORAH *      SUNNY     86  75  70 VRB5      29.95S HX  95
DUBUQUE        CLOUDY    85  77  77 SW12      29.95F HX  95
6HR MIN TEMP:  72; 6HR MAX TEMP:  85;

MONTICELLO *   PTSUNNY   86  77  74 SW12      29.94S HX  97
OELWEIN *      PTSUNNY   88  79  74 W9        29.98R HX 102
WATERLOO       MOSUNNY   87  75  67 W10       29.97R HX  96
6HR MIN TEMP:  77; 6HR MAX TEMP:  88;

$$

IAZ064-065-067-068-078-221900-
   EAST CENTRAL IOWA

CITY           SKY/WX    TMP DP  RH WIND       PRES   REMARKS
DAVENPORT      MOSUNNY   85  75  72 W10       29.96F HX  93
6HR MIN TEMP:  74; 6HR MAX TEMP:  85;

IOWA CITY      MOSUNNY   86  77  74 SW10      29.96F HX  97
6HR MIN TEMP:  75; 6HR MAX TEMP:  87;

MT. PLEASANT * PTSUNNY   82  73  75 SW12      29.98F HX  86
MUSCATINE *    SUNNY     86  73  66 SW8G15    29.95F HX  93
QUAD CITIES    MOSUNNY   85  73  67 W10       29.95F HX  91
6HR MIN TEMP:  74; 6HR MAX TEMP:  86;

$$

IAZ062-063-075>077-085>089-095>099-221900-
   SOUTHEAST IOWA

CITY           SKY/WX    TMP DP  RH WIND       PRES   REMARKS
BURLINGTON     CLOUDY    83  75  77 SW13G21   29.97F HX  90
6HR MIN TEMP:  73; 6HR MAX TEMP:  83; 6HR PCP:  0.01;

FAIRFIELD *    SUNNY     82  75  78 SW7       29.99F HX  89
FORT MADISON * SUNNY     79  73  83 SW12G17   29.99F HX  82
KEOKUK *       SUNNY     77  73  88 SW12G18   29.99F
OSKALOOSA *      N/A     82  76  83 SW9       29.98R HX  89
CENTERVILLE *  MOSUNNY   84  77  79 SW6       30.01S HX  94
OTTUMWA        CLOUDY    82  76  81 S8        29.97R HX  89
6HR MIN TEMP:  74; 6HR MAX TEMP:  82; 6HR PCP:  0.36;

WASHINGTON *   MOSUNNY   84  77  79 SW10G16   29.96F HX  94
$$

ABBREVIATIONS USED IN REMARKS
   TC - TEMPERATURES IN CELSIUS
  WCI - WIND CHILL INDEX
   HX - HEAT INDEX
  VSB - VISIBILITY
$$



USA.gov is the U.S. government's official web portal to all federal, state and local government web resources and services.